Hourly Data Report for September 27, 2021

TORONTO CITY
ONTARIO
Current Station Operator: ECCC - MSC

43°40'00.000" N
79°24'00.000" W
112.50 m
6158355
71508
XTO

Download Data

Hourly Data (September 2021)
Hourly Data Report for September 27, 2021
TIME
LST
Temp Definition
°C
Dew Point Definition
°C
Rel Hum Definition
%
Precip. Amount Definition
mm

Wind Dir Definition
10's deg

Wind Spd Definition
km/h
Visibility Definition
km
Stn Press Definition
kPa
Hmdx Definition


Wind Chill Definition


Weather Definition


00:00 14.5 12.7 89 2.4       99.72     LegendNANA
01:00 14.3 13.5 95 0.8       99.67     LegendNANA
02:00 14.9 14.1 95 0.8       99.68     LegendNANA
03:00 15.0 13.7 92 0.0       99.64     LegendNANA
04:00 15.4 14.4 93 0.6       99.58     LegendNANA
05:00 15.4 14.6 95 0.9       99.53     LegendNANA
06:00 15.9 14.2 89 0.0       99.47     LegendNANA
07:00 15.8 14.3 90 0.0       99.45     LegendNANA
08:00 18.2 13.9 76 0.0       99.46     LegendNANA
09:00 19.4 13.4 68 0.0       99.45     LegendNANA
10:00 21.0 14.1 65 0.0       99.41     LegendNANA
11:00 22.4 14.1 59 0.0       99.39 26   LegendNANA
12:00 23.1 13.4 55 0.0       99.36 26   LegendNANA
13:00 23.5 13.5 54 0.0       99.32 27   LegendNANA
14:00 24.3 14.1 53 0.0       99.31 28   LegendNANA
15:00 24.0 14.8 56 0.0       99.30 28   LegendNANA
16:00 24.0 14.9 57 0.0       99.30 28   LegendNANA
17:00 23.9 14.8 57 0.0       99.32 28   LegendNANA
18:00 22.8 14.6 60 0.0       99.37 27   LegendNANA
19:00 21.5 15.3 68 0.0       99.46 26   LegendNANA
20:00 19.4 13.9 71 0.0       99.56     LegendNANA
21:00 17.7 14.1 80 0.0       99.60     LegendNANA
22:00 17.5 14.2 81 0.0       99.61     LegendNANA
23:00 17.3 13.8 80 0.0       99.67     LegendNANA

Notes on Data Quality.

Legend

  • E = Estimated
  • M = Missing
  • NA = Not Available*
  • [empty] = Indicates an unobserved value
Date modified: